Home   Weather   Boise   Past weeks

Flag for USA Past Weather in Boise, Idaho, USA — Yesterday and Last 2 Weeks

Now
59 °F

Sunny.


Feels Like: 58 °F
Forecast: 47 / 63 °F
Wind: 7 mph from Northeast

Location: Boise Air Terminal

Current Time: Apr 29, 2017 at 7:42:41 pm

Latest Report: Apr 29, 2017 at 6:53 pm


Visibility: 10 mi

Pressure: 30.17 "Hg (27.37 "Hg at 822m altitude)

Humidity: 27%

Dew Point: 25 °F

Location of BoiseLocation

Past Weather in Boise — Graph

°F

Boise Temperature Yesterday

Maximum temperature yesterday: 57 °F (at 3:53 pm)
Minimum temperature yesterday: 35 °F (at 6:53 am)
Average temperature yesterday: 47 °F

High & Low Weather Summary for the Past Weeks

 TemperatureHumidityPressure
High70 °F (Apr 22, 5:53 pm)93% (Apr 18, 8:53 am)30.36 "Hg (Apr 18, 8:53 am)
Low31 °F (Apr 15, 6:53 am)21% (Apr 16, 3:53 pm)29.67 "Hg (Apr 24, 3:53 am)
Average50 °F60%29.99 "Hg
* Reported Apr 14 5:53 pm — Apr 29 5:53 pm, Boise, Weather by CustomWeather, © 2017

Note: Actual official high and low records may vary slightly from our data, if they occured in-between our weather recording intervals... More about our weather records

Advertising

Boise Weather History for the Previous 24 Hours

Scroll right to see more
 ConditionsComfort  
Time TempWeatherWind HumidityBarometerVisibility
5:53 pm
Sat, Apr 29
61 °FSunny.10 mph27%30.17 "Hg10 mi
4:53 pm60 °FSunny.6 mph24%30.18 "Hg10 mi
3:53 pm60 °FSunny.10 mph27%30.19 "Hg10 mi
2:53 pm58 °FSunny.7 mph32%30.22 "Hg10 mi
1:53 pm57 °FSunny.8 mph34%30.24 "Hg10 mi
12:53 pm55 °FSunny.7 mph37%30.26 "Hg10 mi
11:53 am52 °FSunny.8 mph40%30.27 "Hg10 mi
10:53 am50 °FSunny.5 mph46%30.26 "Hg10 mi
9:53 am45 °FSunny.No wind60%30.26 "Hg10 mi
8:53 am40 °FSunny.No wind73%30.26 "Hg10 mi
7:53 am37 °FSunny.No wind82%30.25 "Hg10 mi
6:53 am35 °FClear.No wind82%30.23 "Hg10 mi
5:53 am36 °FClear.No wind79%30.22 "Hg10 mi
4:53 am37 °FClear.No wind76%30.21 "Hg10 mi
3:53 am39 °FClear.No wind70%30.19 "Hg10 mi
2:53 am40 °FClear.6 mph70%30.18 "Hg10 mi
1:53 am41 °FClear.5 mph65%30.17 "Hg10 mi
12:53 am43 °FClear.9 mph60%30.16 "Hg10 mi
11:53 pm
Fri, Apr 28
45 °FClear.12 mph56%30.15 "Hg10 mi
10:53 pm47 °FClear.13 mph52%30.15 "Hg10 mi
9:53 pm50 °FClear.17 mph44%30.13 "Hg10 mi
8:53 pm52 °FSunny.20 mph41%30.11 "Hg10 mi
7:53 pm55 °FSunny.25 mph35%30.09 "Hg10 mi
Weather by CustomWeather, © 2017

See weather overviewHow to use our weather pages